Change the Weather History Date:

Tuesday, November 6, 2012

  Actual Average Record
Temperature  
Mean Temperature 64 °F -  
Max Temperature 80 °F 68 °F 81 °F (1996)
Min Temperature 48 °F 46 °F 41 °F (2002)
Degree Days  
Heating Degree Days 1    
Growing Degree Days 14 (Base 50)    
Moisture  
Dew Point 37 °F    
Average Humidity 41    
Maximum Humidity 66    
Minimum Humidity 16    
Precipitation  
Precipitation 0.00 in - - ()
Sea Level Pressure  
Sea Level Pressure 30.07 in    
Wind  
Wind Speed 7 mph (SSE)    
Max Wind Speed 12 mph    
Max Gust Speed -    
Visibility 10 miles    
Events      
Averages and records for this station are not official NWS values.
T = Trace of Precipitation, MM = Missing Value Source: NWS Daily Summary

Daily Weather History Graph

Daily Weather History Graph

Search for Another Location

Airport or City:

Trip Planner

Search our weather history database for the weather conditions in past years. The results will help you decide how hot, cold, wet, or windy it might be!

Date:

Astronomy

Nov. 06, 2012 Rise Set
Actual Time 7:11 AM CST 5:58 PM CST
Civil Twilight 6:46 AM CST 6:24 PM CST
Nautical Twilight 6:17 AM CST 6:52 PM CST
Astronomical Twilight 5:48 AM CST 7:21 PM CST
Moon No Moon Rise 1:08 PM CST (11/6)
Length of Visible Light 11h 38m
Length of Day
10h 47m
Waning Gibbous, 53% of the Moon is Illuminated
Nov 6
Waning Gibbous
Nov 6
Last Quarter
Nov 13
New
Nov 20
First Quarter
Nov 28
Full

Hourly Weather History & Observations

Time (CST) Temp. Dew Point Humidity Pressure Visibility Wind Dir Wind Speed Gust Speed Precip Events Conditions
12:53 AM 53.1 °F 36.0 °F 52% 30.08 in 10.0 mi SSW 8.1 mph - N/A   Clear
1:53 AM 54.0 °F 37.0 °F 53% 30.08 in 10.0 mi South 6.9 mph - N/A   Clear
2:53 AM 50.0 °F 37.0 °F 61% 30.09 in 10.0 mi South 6.9 mph - N/A   Clear
3:53 AM 48.9 °F 37.9 °F 66% 30.07 in 10.0 mi SSE 6.9 mph - N/A   Clear
4:53 AM 52.0 °F 39.0 °F 61% 30.06 in 10.0 mi South 9.2 mph - N/A   Clear
6:53 AM 52.0 °F 39.0 °F 61% 30.09 in 10.0 mi SSW 11.5 mph - N/A   Clear
7:53 AM 50.0 °F 37.9 °F 63% 30.12 in 10.0 mi SSW 3.5 mph - N/A   Clear
8:53 AM 55.0 °F 41.0 °F 59% 30.14 in 10.0 mi SSE 4.6 mph - N/A   Clear
9:53 AM 64.9 °F 41.0 °F 42% 30.13 in 10.0 mi SSE 3.5 mph - N/A   Clear
10:53 AM 72.0 °F 37.9 °F 29% 30.12 in 10.0 mi Calm Calm - N/A   Clear
11:53 AM 75.0 °F 37.0 °F 25% 30.11 in 10.0 mi NNE 3.5 mph - N/A   Clear
12:53 PM 78.1 °F 36.0 °F 22% 30.07 in 10.0 mi East 6.9 mph - N/A   Clear
1:53 PM 78.1 °F 32.0 °F 19% 30.04 in 10.0 mi Calm Calm - N/A   Clear
2:53 PM 80.1 °F 32.0 °F 17% 30.02 in 10.0 mi Calm Calm - N/A   Clear
3:53 PM 80.1 °F 30.0 °F 16% 30.01 in 10.0 mi ENE 3.5 mph - N/A   Clear
4:53 PM 80.1 °F 30.0 °F 16% 30.01 in 10.0 mi East 5.8 mph - N/A   Clear
5:53 PM 73.0 °F 35.1 °F 25% 30.04 in 10.0 mi ESE 6.9 mph - N/A   Clear
6:53 PM 71.1 °F 39.9 °F 32% 30.04 in 10.0 mi SE 10.4 mph - N/A   Clear
7:53 PM 66.9 °F 39.9 °F 37% 30.06 in 10.0 mi SSE 11.5 mph - N/A   Clear
8:53 PM 63.0 °F 39.9 °F 43% 30.07 in 10.0 mi SSE 11.5 mph - N/A   Clear
9:53 PM 61.0 °F 39.9 °F 46% 30.07 in 10.0 mi SSE 10.4 mph - N/A   Clear
10:53 PM 60.1 °F 39.9 °F 47% 30.06 in 10.0 mi SSE 11.5 mph - N/A   Clear
11:53 PM 57.0 °F 39.9 °F 53% 30.06 in 10.0 mi South 9.2 mph - N/A   Clear